Погода в Терезе

Россия / Карачаево-Черкесская Республика     43°55′59″N   42°26′33″E
темп.,
°C
ветер,
м/с
пор.,
м/с
влажн.,
%
обл.,
%
осадки,
мм/ч
давл.,
гПа
погр.,
м
9 марта, вт
вт900:00−9ююз227953 0.0 101825
03:00−9ююз227649 0.0 101925
06:00−9ююз336545 0.0 101924
09:00−4ююз126722 0.0 101875
12:00−1ссз12580 0.0 1017513
15:000зсз22630 0.0 1016540
18:00−6зсз239724 0.3 1019102
21:00−7юз349261 0.6 1022101
10 марта, ср
ср1000:00−8юз338596 0.1 102283
03:00−10юз237695 0.2 102452
06:00−11юз237393 0.2 102468
09:00−7з117681 0.2 1024138
12:00−4ссз2182100 0.0 1023487
15:00−4св2283100 0.1 1021511
18:00−5всв2394100 0.2 1021143
21:00−6всв4796100 0.6 1021347
11 марта, чт
чт1100:00−6в5992100 0.2 1019447
03:00−6в4695100 0.8 1018340
06:00−7в5995100 1.4 1017462
09:00−7в81295100 3.6 1017623
12:00−7в101394100 1.9 1016843
15:00−7в101494100 4.1 1015938
18:00−9в101594100 2.3 1016878
21:00−11в111594100 3.9 1017802
12 марта, пт
пт1200:00−12в91494100 1.4 1018795
03:00−12в91394100 2.8 1019815
06:00−13в91495100 0.9 1021823
09:00−13в91393100 1.7 1023786
12:00−11в91191100 0.3 1023776
15:00−11в91291100 0.6 1024737
18:00−12в6993100 0.1 1027451
21:00−14вюв3795100 0.3 1029268
13 марта, сб
сб1300:00−17юв229263 0.0 103021
03:00−16ю117332 0.0 103020
06:00−14ю11670 0.0 103121
09:00−6вюв01780 0.0 103059
12:00−3св21842 0.0 1028276
15:00−3св11899 0.0 1026245
18:00−8ююв119319 0.0 102621
21:00−8ююз227920 0.0 102721